Volver al catálogo

STARLINK-3808

ActivoComunicacionesVLEO
NORAD 52366·PAYLOAD·🇺🇸 United States

Lanzado Apr 29, 2022 desde Cape Canaveral Space Force Station

Loading…

Próximos Pases (próximas 24 horas)

TLE

ActualizadoSource: CelesTrak SupGP

Época: Sep 15, 2026, 02:22 UTC

1 52366C 22045AM  26258.09909722 -.00032473  00000+0 -95968-3 0  2584
2 52366  53.1596  50.6178 0001148  84.1378 268.1302 15.34398271    11

Sigue STARLINK-3808 en tiempo real con AllMySat

Download on the App Store